CAPE
86 64 91 55 70 41 10 39 5 15 9 13 8 32 3 0 0 0 6 1 18 2 0 0 0 0 0 0 0 0 0 24 3 0 0 14 1 0 1 27 0 2 1 0
121 74 103 58 63 10 39 28 44 12 6 2 6 9 5 7 13 13 19 18 12 0 0 0 0 0 0 0 0 0 17 12 1 0 6 8 32 0 2 0 23 10 34 0
95 111 81 52 29 66 8 1 10 25 18 22 7 9 9 9 5 9 19 21 4 5 8 0 0 0 0 0 0 3 15 13 5 0 16 2 32 13 0 0 20 2 0 0
62 122 102 38 33 27 5 33 22 7 4 13 1 3 5 3 11 6 9 12 9 5 0 0 0 0 0 0 10 15 10 6 0 3 3 13 14 7 9 7 0 0 0 0
34 79 83 38 54 23 41 24 17 9 0 7 6 2 3 17 8 12 15 6 5 0 0 0 0 0 1 0 1 0 13 4 4 8 1 7 7 0 8 23 0 1 0 0
38 62 76 52 39 27 22 5 0 0 1 0 3 7 2 4 1 2 2 5 13 0 0 0 1 0 1 0 0 2 9 5 9 5 3 12 11 5 6 1 1 0 0 0
39 58 68 61 34 28 19 3 0 12 11 2 6 2 1 0 0 0 1 2 9 0 2 6 1 15 13 0 0 0 0 3 1 4 7 0 0 0 0 1 1 0 0 0
30 45 53 79 33 20 11 0 0 0 3 10 1 0 0 0 0 0 14 2 6 0 1 26 16 0 2 0 0 0 0 5 0 0 0 0 0 0 0 0 0 0 0 0
30 36 61 74 33 33 14 0 0 0 0 1 6 0 1 0 0 0 0 0 0 0 22 26 4 9 0 0 4 0 0 0 0 0 0 0 0 0 0 0 0 0 0 0
26 27 56 64 46 45 16 0 0 0 8 0 0 0 1 0 0 2 0 3 4 0 9 6 1 2 0 1 0 4 15 7 1 0 0 0 0 0 0 0 0 0 0 0
33 15 48 56 45 38 20 3 0 0 0 0 0 0 0 0 0 1 0 21 7 3 8 6 1 0 0 0 0 0 0 0 1 0 0 0 0 0 0 0 0 0 0 0
28 14 34 51 39 29 19 1 0 0 0 0 0 0 0 0 0 0 0 1 2 3 4 0 2 0 0 0 0 0 0 0 0 0 0 0 0 0 0 0 0 0 0 0
27 10 22 50 39 30 23 4 0 0 0 0 0 0 0 0 0 0 8 2 2 0 0 0 0 0 0 0 0 0 0 0 0 0 0 0 0 0 0 0 0 0 0 0
26 14 40 35 27 21 23 13 0 0 0 5 1 0 0 0 0 0 0 3 0 0 0 0 0 0 0 0 0 0 0 0 0 0 0 0 0 0 0 0 0 0 0 0
11 15 31 29 25 20 12 3 0 0 5 19 0 0 0 0 1 2 3 7 5 2 4 0 2 0 0 0 0 0 0 0 0 0 0 0 0 0 0 0 0 0 0 0
9 27 34 31 12 7 11 9 0 0 0 5 2 0 0 0 1 3 2 4 1 1 1 0 0 0 0 0 0 0 0 0 0 0 0 0 0 0 0 0 0 0 0 0
43 37 45 12 4 18 11 3 0 0 0 1 0 0 0 0 0 1 4 1 0 0 0 0 0 0 0 0 0 0 0 0 0 0 0 0 0 0 0 0 0 0 0 0
44 28 8 5 4 7 4 0 0 0 0 0 0 0 1 0 9 15 4 24 3 0 0 0 0 0 0 0 0 0 0 0 0 0 0 0 0 0 0 0 0 0 0 0
25 1 7 1 9 7 0 0 0 0 0 5 0 0 0 0 0 0 0 1 5 0 0 0 0 0 0 0 0 0 0 0 0 0 0 0 0 0 0 0 0 0 0 0
1 1 19 3 8 0 0 0 0 0 0 0 0 0 0 0 0 0 0 0 0 1 0 0 0 0 0 0 0 0 0 0 0 0 0 0 0 0 0 0 0 0 0 0
5 4 7 1 0 1 15 14 0 0 1 0 0 0 0 0 0 0 0 0 0 0 0 0 0 0 0 0 0 0 0 0 0 0 0 0 0 0 0 0 0 0 0 0
24 7 2 4 2 0 0 0 0 0 0 0 0 0 0 0 0 0 0 0 0 0 0 0 0 0 0 0 0 0 0 0 0 0 0 0 0 0 0 0 0 0 0 0
5 10 2 4 1 0 0 0 0 0 0 0 0 0 0 0 0 0 0 0 0 0 1 0 0 0 0 0 0 0 0 0 0 0 0 0 0 0 0 0 0 0 0 0
3 1 0 0 0 0 0 0 0 0 0 0 0 0 0 0 0 0 0 0 0 0 0 0 0 0 0 0 0 0 0 0 0 0 0 0 0 0 0 0 0 0 0 0
0 1 0 0 0 0 0 0 0 0 0 0 0 0 0 0 0 0 0 0 0 0 0 0 0 0 0 0 0 0 0 0 0 0 0 0 0 0 0 0 0 0 0 0
0 0 0 1 0 0 0 0 0 0 0 0 0 0 0 0 0 0 0 0 0 0 0 0 0 0 0 0 0 0 0 0 0 0 0 0 0 0 0 0 0 0 0 0
0 0 3 1 0 0 0 0 0 0 0 0 0 0 0 0 0 0 0 0 0 0 0 0 0 0 0 0 0 0 0 0 0 0 0 0 0 0 0 0 0 0 0 0
CIN
-0 -0 -0 -0 -0 -0 -7 -0 -0 -0 -5 -0 -0 -0 -1 -0 -0 -1 -6 -0 -0 -0 -0 -0 -0 -0 -0 -0 -0 -0 -0 -1 -0 -0 -0 -2 -33 -0 -3 -1 -0 -1 -0 -0
-0 -0 -0 -0 -0 -0 -0 -0 -0 -0 -4 -0 -0 -0 -1 -4 -3 -1 -0 -0 -0 -0 -0 -0 -0 -0 -0 -0 -2 -3 -0 -0 -3 -0 -1 -0 -0 -0 -10 -0 -8 -6 -0 -0
-0 -0 -0 -0 -0 -0 -0 -0 -0 -1 -0 -0 -1 -0 -0 -0 -6 -0 -0 -0 -0 -0 -0 -0 -0 -0 -0 -0 -0 -13 -0 -0 -0 -0 -0 -0 -0 -0 -0 -0 -0 -6 -0 -0
-0 -0 -0 -0 -0 -0 -1 -0 -0 -2 -0 -0 -0 -0 -0 -0 -0 -0 -0 -0 -5 -0 -0 -0 -0 -0 -0 -0 -33 -0 -0 -0 -0 -0 -0 -0 -0 -0 -0 -0 -0 -0 -0 -0
-0 -0 -0 -0 -0 -0 -0 -0 -0 -6 -0 -1 -1 -0 -0 -0 -0 -0 -0 -0 -0 -0 -1 -0 -0 -0 -4 -20 -0 -0 -0 -0 -0 -0 -0 -0 -6 -0 -0 -4 -0 -0 -0 -0
-0 -0 -0 -0 -0 -0 -0 -20 -0 -0 -0 -0 -0 -0 -1 -0 -10 -0 -1 -0 -0 -1 -0 -0 -7 -0 -11 -0 -0 -0 -0 -0 -0 -0 -0 -0 -0 -0 -0 -0 -0 -0 -0 -0
-0 -0 -0 -0 -0 -0 -0 -1 -0 -11 -1 -0 -0 -0 -0 -0 -0 -0 -24 -3 -0 -0 -13 -23 -41 -24 -32 -0 -0 -0 -0 -0 -0 -0 -0 -0 -0 -0 -0 -0 -3 -0 -0 -0
-0 -0 -0 -0 -0 -0 -0 -0 -41 -0 -2 -2 -1 -0 -0 -0 -0 -0 -1 -2 -10 -0 -1 -2 -2 -0 -4 -0 -0 -0 -0 -3 -0 -0 -0 -0 -0 -0 -0 -0 -0 -0 -0 -0
-0 -0 -0 -0 -0 -0 -0 -0 -0 -0 -0 -0 -1 -1 -3 -0 -0 -0 -0 -0 -0 -1 -1 -0 -0 -0 -0 -0 -20 -0 -0 -0 -2 -0 -0 -0 -0 -0 -0 -0 -0 -0 -0 -0
-0 -0 -0 -0 -0 -0 -0 -0 -0 -0 -12 -0 -0 -0 -0 -0 -0 -0 -0 -1 -2 -5 -1 -0 -1 -0 -0 -0 -0 -2 -3 -4 -1 -0 -0 -0 -0 -0 -0 -0 -0 -0 -0 -0
-0 -0 -0 -0 -0 -0 -0 -0 -0 -0 -0 -0 -0 -0 -0 -0 -0 -0 -0 -0 -0 -0 -0 -0 -3 -0 -0 -0 -0 -0 -0 -0 -4 -0 -0 -0 -0 -0 -0 -0 -0 -0 -0 -0
-0 -0 -0 -0 -0 -0 -0 -0 -0 -0 -0 -0 -0 -0 -0 -0 -0 -1 -1 -0 -1 -5 -1 -0 -0 -0 -0 -0 -0 -0 -1 -0 -0 -0 -0 -0 -0 -0 -0 -0 -0 -0 -0 -0
-0 -0 -1 -0 -0 -0 -0 -0 -0 -0 -0 -0 -0 -0 -0 -0 -0 -0 -0 -3 -3 -3 -0 -0 -0 -0 -0 -0 -0 -0 -0 -0 -0 -0 -0 -0 -0 -0 -0 -0 -0 -0 -0 -0
-0 -0 -0 -0 -0 -0 -0 -0 -0 -0 -0 -2 -1 -0 -0 -0 -0 -0 -0 -0 -0 -0 -0 -0 -0 -0 -0 -0 -0 -0 -0 -0 -0 -0 -0 -0 -0 -0 -0 -0 -0 -0 -0 -0
-0 -0 -0 -0 -0 -0 -0 -0 -0 -0 -2 -0 -0 -0 -0 -0 -0 -0 -0 -0 -0 -0 -3 -4 -19 -0 -0 -0 -0 -0 -0 -0 -0 -0 -0 -0 -0 -0 -0 -0 -0 -0 -0 -0
-0 -0 -0 -0 -0 -0 -0 -0 -0 -0 -28 -0 -0 -0 -0 -0 -0 -0 -0 -0 -0 -0 -0 -0 -0 -0 -0 -0 -0 -0 -0 -0 -0 -0 -0 -0 -0 -0 -0 -0 -0 -0 -0 -0
-0 -0 -0 -0 -0 -1 -0 -0 -0 -0 -0 -0 -0 -0 -0 -0 -0 -2 -0 -0 -0 -0 -0 -0 -0 -0 -0 -0 -0 -0 -0 -0 -0 -0 -0 -0 -0 -0 -0 -0 -0 -0 -0 -0
-0 -0 -0 -0 -0 -0 -0 -0 -0 -1 -0 -2 -0 -0 -1 -0 -1 -0 -7 -1 -15 -0 -0 -0 -0 -0 -0 -0 -0 -0 -0 -0 -0 -0 -0 -0 -0 -0 -0 -0 -0 -0 -0 -0
-0 -0 -0 -1 -0 -0 -0 -0 -0 -0 -8 -18 -0 -0 -0 -0 -0 -0 -0 -3 -2 -0 -0 -0 -0 -0 -0 -0 -0 -0 -0 -0 -0 -0 -0 -0 -0 -0 -0 -0 -0 -0 -0 -0
-1 -0 -0 -9 -9 -0 -0 -0 -1 -0 -0 -0 -0 -0 -0 -0 -0 -0 -0 -0 -0 -0 -0 -0 -0 -0 -0 -0 -0 -0 -0 -0 -0 -0 -0 -0 -0 -0 -0 -0 -0 -0 -0 -0
-0 -0 -0 -0 -0 -0 -2 -0 -0 -0 -1 -0 -0 -0 -0 -0 -0 -0 -0 -0 -0 -0 -0 -0 -0 -0 -0 -0 -0 -0 -0 -0 -0 -0 -0 -0 -0 -0 -0 -0 -0 -0 -0 -0
-1 -3 -0 -0 -0 -0 -0 -0 -0 -0 -0 -0 -0 -0 -0 -0 -0 -0 -0 -0 -0 -0 -0 -0 -0 -0 -0 -0 -0 -0 -0 -0 -0 -0 -0 -0 -0 -0 -0 -0 -0 -0 -0 -0
-0 -0 -0 -0 -0 -0 -0 -0 -0 -1 -0 -0 -0 -0 -0 -0 -0 -0 -0 -0 -0 -0 -0 -0 -0 -0 -0 -0 -0 -0 -0 -0 -0 -0 -0 -0 -0 -0 -0 -0 -0 -0 -0 -0
-0 -0 -0 -0 -0 -0 -0 -0 -0 -0 -0 -0 -0 -0 -0 -0 -0 -0 -0 -0 -0 -0 -0 -0 -0 -0 -0 -0 -0 -0 -0 -0 -0 -0 -0 -0 -0 -0 -0 -0 -0 -0 -0 -0
-0 -0 -0 -0 -0 -0 -0 -0 -0 -0 -0 -0 -0 -0 -0 -0 -0 -0 -0 -0 -0 -0 -0 -0 -0 -0 -0 -0 -0 -0 -0 -0 -0 -0 -0 -0 -0 -0 -0 -0 -0 -0 -0 -0
-0 -0 -0 -0 -0 -0 -0 -0 -0 -0 -0 -0 -0 -0 -0 -0 -0 -0 -0 -0 -0 -0 -0 -0 -0 -0 -0 -0 -0 -0 -0 -0 -0 -0 -0 -0 -0 -0 -0 -0 -0 -0 -0 -0
-0 -0 -0 -0 -0 -0 -0 -0 -0 -0 -0 -0 -0 -0 -0 -0 -0 -0 -0 -0 -0 -0 -0 -0 -0 -0 -0 -0 -0 -0 -0 -0 -0 -0 -0 -0 -0 -0 -0 -0 -0 -0 -0 -0
Wind_Speed
28 28 23 28 15 18 13 4 3 15 13 7 4 4 5 7 5 5 4 4 8 8 9 8 6 10 7 12 8 11 11 5 8 16 5 13 17 18 17 9 9 9 2 10
27 30 26 25 26 30 5 7 4 11 11 6 8 4 7 4 7 9 6 9 10 12 7 4 10 8 9 7 7 9 9 6 5 5 7 12 14 20 17 11 3 10 3 9
26 28 30 26 25 26 7 4 5 5 6 1 7 12 8 7 5 11 7 5 13 7 7 9 4 7 7 16 11 15 12 5 7 10 2 3 11 25 20 20 12 7 14 12
26 28 30 27 30 27 3 3 2 6 8 7 10 11 5 12 8 8 10 4 13 7 5 6 10 13 2 7 15 13 9 7 11 20 25 14 13 22 23 17 8 14 3 16
25 28 28 25 28 29 2 4 4 3 8 11 8 13 10 11 8 6 6 8 10 16 13 5 4 5 5 6 12 11 5 5 5 7 18 16 16 22 18 14 8 7 9 18
25 27 26 21 26 21 4 2 2 4 10 10 8 6 9 11 8 10 11 11 10 5 14 11 7 8 5 9 12 11 6 4 3 5 9 9 8 20 17 6 9 15 15 22
23 26 27 21 23 20 4 5 2 3 6 10 10 9 13 15 15 12 7 12 8 3 5 5 3 1 4 3 8 10 5 5 3 2 1 3 2 20 24 23 18 21 8 5
23 25 27 21 23 26 10 2 1 2 3 5 8 7 2 5 9 14 12 10 7 2 3 3 2 4 3 3 3 5 6 2 4 3 2 4 2 6 10 14 9 5 6 6
22 24 26 23 23 26 9 3 2 4 4 6 4 6 4 2 2 0 3 2 1 5 5 3 5 4 4 2 1 3 2 2 0 4 3 3 3 1 1 0 3 3 8 11
22 22 24 22 23 23 11 2 1 4 3 2 4 3 4 5 2 2 2 2 4 4 5 5 3 4 2 5 4 4 3 3 2 2 2 8 5 1 1 3 6 1 6 9
22 22 25 23 21 21 10 4 2 2 2 1 4 5 4 2 2 3 2 3 2 3 5 3 3 4 6 3 3 4 5 5 4 3 2 6 1 1 2 4 3 2 4 5
22 22 24 24 23 22 17 1 1 2 2 1 2 2 2 5 5 4 4 2 3 5 3 3 3 1 2 4 3 1 4 6 5 8 7 2 3 1 2 1 3 4 6 10
21 22 23 23 22 22 13 3 2 2 1 2 0 5 4 2 3 3 3 3 3 3 1 4 2 4 4 5 5 2 4 2 2 1 1 2 2 2 3 3 4 7 11 13
20 21 23 23 22 22 17 3 2 1 2 2 2 2 1 2 5 3 3 3 1 2 1 1 3 3 3 3 2 4 4 6 4 5 2 2 2 1 5 8 10 11 9 10
20 21 21 20 20 20 11 6 4 1 1 1 1 1 3 3 5 6 5 5 3 2 3 3 4 1 3 1 2 3 6 7 6 7 8 6 4 8 8 12 10 11 16 11
20 21 21 20 19 18 5 2 2 4 2 2 2 1 2 2 3 5 4 3 2 3 1 3 1 1 2 2 3 6 6 6 6 4 5 3 8 7 4 12 10 10 11 13
22 22 21 19 18 7 5 1 3 7 4 1 1 1 1 4 3 2 2 2 2 1 2 1 1 1 2 2 4 4 3 5 5 9 12 8 2 6 9 15 13 15 12 10
24 25 24 22 17 13 6 4 7 7 2 1 2 2 1 4 2 2 0 2 1 1 2 2 2 1 1 4 6 3 4 7 6 4 3 9 15 14 12 13 15 15 12 10
27 26 19 4 4 3 2 10 8 1 2 2 2 4 3 1 0 0 1 0 1 1 1 1 0 2 5 7 6 7 8 6 10 9 11 13 16 15 13 14 13 16 10 9
22 5 2 3 2 14 13 3 3 1 2 1 3 3 3 1 1 1 1 2 1 1 1 3 2 5 6 6 6 7 9 13 14 17 7 10 11 14 12 12 10 12 11 9
4 5 3 5 17 3 3 3 4 3 2 4 3 3 4 2 2 2 1 1 1 1 3 1 3 5 6 3 5 6 10 11 4 7 9 7 16 18 15 12 10 11 11 11
5 4 3 3 3 3 4 4 0 4 6 4 5 5 4 2 1 3 1 2 1 3 1 1 4 5 2 2 3 5 9 9 7 11 15 14 14 14 14 13 12 9 10 11
1 1 3 2 2 3 8 9 4 4 3 4 3 4 4 3 2 3 3 2 2 2 1 5 7 2 0 3 5 7 7 11 12 13 13 17 16 14 16 13 10 12 10 8
2 2 4 4 4 4 3 1 4 4 4 6 5 3 3 2 3 2 5 1 1 2 3 9 3 4 4 5 5 10 8 11 14 15 16 18 17 14 12 11 10 12 11 8
3 2 4 2 2 1 0 1 2 1 5 8 4 3 3 2 4 2 4 1 4 6 7 4 3 3 5 6 7 10 12 13 14 14 15 16 16 15 13 9 9 10 10 10
2 3 3 3 3 1 1 1 0 1 6 4 3 4 3 1 5 4 8 8 8 6 5 3 2 6 5 7 7 8 11 13 14 14 15 16 15 14 13 11 9 8 9 10
3 1 2 2 4 3 2 2 2 2 5 4 4 5 7 4 4 2 5 8 5 4 2 1 2 5 8 8 9 10 13 14 14 16 14 15 13 13 14 14 6 9 8 9
Wind_Direction
332 339 340 339 317 309 305 199 141 149 146 155 182 182 190 183 172 211 184 194 215 224 191 186 214 227 231 188 179 183 195 215 227 231 207 223 210 212 220 218 203 236 345 274
333 338 342 344 342 335 251 141 120 155 159 162 180 163 208 202 187 189 209 213 212 205 191 222 194 218 223 175 166 163 165 216 255 256 173 210 210 206 196 238 241 224 232 271
332 340 343 352 342 320 321 87 140 131 190 243 152 192 201 200 218 228 215 233 223 238 231 219 258 233 207 185 175 163 176 225 222 240 9 148 191 196 203 208 232 211 230 264
335 342 341 355 340 330 34 170 161 120 167 196 175 175 200 200 210 211 209 222 241 216 255 209 219 245 209 165 161 173 188 246 218 241 256 246 209 191 193 192 178 200 229 221
337 342 342 360 337 338 226 147 149 156 160 168 162 186 200 203 187 198 191 218 230 216 229 215 231 214 192 184 169 186 210 270 258 253 223 218 183 186 191 194 191 257 275 279
342 339 341 358 345 355 321 1 282 131 155 177 183 210 204 213 177 200 211 220 259 230 231 240 248 237 257 169 171 189 196 251 287 351 139 129 159 173 180 172 207 196 219 235
341 339 339 356 346 332 326 261 92 137 161 166 198 183 201 231 227 216 208 212 239 241 323 274 241 248 33 200 185 176 229 245 273 353 108 63 46 169 177 208 198 219 199 101
337 339 340 348 343 335 305 290 204 108 116 159 171 197 252 255 237 227 223 201 194 102 313 276 197 330 330 205 193 195 219 291 307 13 304 289 41 99 164 193 230 181 159 106
337 337 338 348 343 329 320 277 302 108 123 194 164 168 181 208 200 310 243 334 160 164 205 180 194 194 222 278 280 236 185 104 157 13 32 21 266 354 23 123 285 168 148 156
332 334 338 345 339 330 325 256 293 82 137 205 140 173 174 164 168 215 231 232 206 206 158 211 160 190 192 211 209 154 139 143 223 15 317 288 258 297 35 115 242 150 158 172
332 335 335 341 338 335 343 295 280 95 144 191 189 154 150 113 172 167 185 231 208 156 160 183 174 190 214 162 212 184 158 156 186 154 233 283 306 353 183 219 27 65 95 110
331 332 333 339 341 335 338 310 360 71 88 315 328 284 261 193 195 151 183 279 210 201 142 201 149 173 168 168 227 218 202 183 184 182 212 247 324 307 44 111 117 98 104 119
329 330 333 333 337 336 341 271 135 86 77 273 342 232 215 116 170 129 195 218 251 270 350 162 175 206 130 168 221 194 272 166 216 117 10 166 174 28 53 72 96 97 114 123
326 327 330 330 335 334 332 304 220 117 148 223 209 122 216 168 145 158 214 309 277 264 334 222 180 203 179 200 161 174 196 144 166 274 289 68 248 179 128 91 101 93 76 106
326 321 325 325 326 324 315 269 216 185 281 310 185 164 190 157 167 199 222 231 277 255 171 204 211 165 135 165 80 248 185 174 171 219 206 168 201 153 138 125 125 122 118 99
319 319 321 320 323 328 294 190 207 188 105 314 242 108 171 120 191 223 227 238 230 229 203 223 151 101 107 149 214 258 199 193 176 202 114 66 107 103 72 113 120 111 108 118
318 314 308 310 309 303 252 325 317 167 110 231 296 262 225 151 180 211 213 195 248 247 265 216 131 165 142 204 216 259 282 158 118 123 106 70 140 145 117 111 104 96 86 87
317 311 306 301 291 283 258 228 219 149 144 204 164 255 275 180 193 204 284 177 196 245 267 26 75 35 70 256 236 134 124 111 90 21 36 116 114 107 105 111 113 101 102 105
317 308 295 274 197 228 197 141 127 60 159 195 155 159 214 172 7 288 199 243 193 318 20 84 67 204 226 227 206 181 180 172 134 77 89 112 117 121 124 120 116 116 120 117
322 295 213 191 280 123 121 99 158 110 245 193 219 145 165 179 138 333 57 6 52 75 346 309 233 256 265 235 214 182 151 138 135 112 93 109 118 135 136 131 128 129 131 123
355 355 308 316 289 222 153 196 172 145 195 187 187 154 139 241 136 148 350 170 13 103 277 305 270 262 245 358 187 170 143 161 151 89 95 116 140 142 133 122 119 124 128 130
285 285 333 281 274 54 132 200 231 174 203 181 163 154 147 151 136 105 20 117 45 215 338 358 257 251 291 39 124 143 137 127 108 117 118 120 122 126 122 125 124 120 119 123
15 167 250 215 243 161 184 184 197 182 172 171 165 122 126 127 70 74 94 137 181 52 177 235 235 261 201 109 104 96 97 105 107 105 109 111 111 117 125 120 116 121 118 114
268 236 256 215 189 239 208 162 136 191 153 146 143 104 118 119 86 139 101 171 94 181 242 239 243 229 152 119 118 120 117 119 121 123 123 120 118 110 107 111 122 124 121 117
252 238 252 253 314 360 44 227 266 254 148 138 103 60 87 111 107 76 108 71 245 221 231 238 232 199 141 123 118 122 125 128 127 131 125 120 121 119 106 98 103 110 111 112
242 241 279 314 277 315 277 202 251 227 153 86 65 120 86 154 127 118 209 150 222 241 219 237 136 139 123 120 114 117 125 129 127 123 120 118 118 120 112 96 91 92 109 112
257 267 255 250 262 290 283 218 229 204 169 168 130 117 195 88 69 227 198 206 221 217 229 177 163 144 134 124 118 120 123 120 118 118 111 107 111 113 109 106 87 92 88 95